Location: Ecklingerode
(51.5036°N, 10.3122°E)
Time: 00:59:41
(UTC+00:00)

IRS-1C Rocket - Pass Details

Date: 29 October 2020
Orbit: 801 x 805 km, 99.0° (Epoch: 23 November)

Event Time Altitude Azimuth Distance (km) Brightness Sun altitude
Rises 16:49:53 0° 149° (SSE) 3,306 7.1 -8.8°
Reaches altitude 10° 16:52:14 10° 146° (SE) 2,380 6.3 -9.2°
Maximum altitude 16:57:23 59° 68° (ENE) 934 4.1 -10.0°
Drops below altitude 10° 17:02:35 10° 350° (N) 2,399 6.6 -10.8°
Sets 17:04:57 0° 347° (NNW) 3,334 7.4 -11.1°
